Sheridan, WY

7:30 PM MST on November 19, 2017 (GMT -0700)
Sheridan County

Weather History for KSHR - January, 2013

Change the Weather History Date:

Saturday, January 12, 2013

  Actual Average Record
Temperature  
Mean Temperature 8 °F 24 °F  
Max Temperature 14 °F 36 °F 66 °F (1953)
Min Temperature 2 °F 11 °F -35 °F (1997)
Degree Days  
Heating Degree Days 57 41  
Month to date heating degree days 509 501  
Since 1 July heating degree days 3464 3684  
Cooling Degree Days 0 0  
Month to date cooling degree days 0 0  
Year to date cooling degree days 0 0  
Moisture  
Dew Point 1 °F    
Average Humidity 76    
Maximum Humidity 87    
Minimum Humidity 64    
Precipitation  
Precipitation 0.01 in 0.02 in 0.45 in (1932)
Month to date precipitation 0.02 0.20  
Year to date precipitation 0.02 0.20  
Sea Level Pressure  
Sea Level Pressure 30.23 in    
Wind  
Wind Speed 7 mph (WNW)    
Max Wind Speed 32 mph    
Max Gust Speed 37 mph    
Visibility 8 miles    
Events Snow    
T = Trace of Precipitation, MM = Missing Value Source: NWS Daily Summary

Daily Weather History Graph

Daily Weather History Graph

Search for Another Location

Airport or City:

Trip Planner

Search our weather history database for the weather conditions in past years. The results will help you decide how hot, cold, wet, or windy it might be!

Date:

Astronomy

Jan. 12, 2013 Rise Set
Actual Time 7:43 AM MST 4:50 PM MST
Civil Twilight 7:10 AM MST 5:22 PM MST
Nautical Twilight 6:33 AM MST 5:59 PM MST
Astronomical Twilight 5:58 AM MST 6:34 PM MST
Moon 7:59 AM MST (1/12) 6:27 PM MST (1/12)
Length of Visible Light 10h 12m
Length of Day
9h 06m
New Moon, 1% of the Moon is Illuminated
Jan 12
New Moon
Jan 18
First Quarter
Jan 26
Full
Feb 3
Last Quarter
Feb 10
New

Hourly Weather History & Observations

Time (MST) Temp. Windchill Dew Point Humidity Pressure Visibility Wind Dir Wind Speed Gust Speed Precip Events Conditions
12:53 AM 6.1 °F -14.8 °F -0.0 °F 76% 30.22 in 7.0 mi NW 21.9 mph 28.8 mph N/A   Overcast
1:53 AM 6.1 °F -16.1 °F -0.0 °F 76% 30.24 in 5.0 mi NW 25.3 mph 32.2 mph 0.00 in   Overcast
2:18 AM 6.8 °F -15.1 °F -0.4 °F 72% 30.01 in 2.5 mi NW 25.3 mph - 0.00 in Snow Light Snow
2:40 AM 6.8 °F -13.8 °F -0.4 °F 72% 30.02 in 4.0 mi NW 21.9 mph - 0.00 in   Overcast
2:53 AM 6.1 °F -13.8 °F -0.0 °F 76% 30.25 in 4.0 mi NW 19.6 mph - 0.00 in   Overcast
3:31 AM 6.8 °F -12.9 °F 1.4 °F 79% 30.01 in 2.5 mi NW 19.6 mph - 0.00 in Snow Light Snow
3:53 AM 6.1 °F -13.8 °F 1.0 °F 80% 30.25 in 2.5 mi NNW 19.6 mph 25.3 mph 0.01 in Snow Light Snow
4:18 AM 6.8 °F -11.8 °F 1.4 °F 79% 30.00 in 4.0 mi NW 17.3 mph - 0.00 in   Haze
4:53 AM 6.1 °F -10.9 °F -0.0 °F 76% 30.24 in 7.0 mi NW 13.8 mph - 0.00 in   Overcast
5:53 AM 6.1 °F -6.8 °F -0.0 °F 76% 30.25 in 10.0 mi WNW 8.1 mph - 0.00 in   Overcast
6:53 AM 6.1 °F -9.5 °F -0.0 °F 76% 30.27 in 9.0 mi NNW 11.5 mph - N/A   Overcast
7:53 AM 6.1 °F -2.8 °F -0.0 °F 76% 30.29 in 6.0 mi West 4.6 mph - N/A   Haze
8:53 AM 6.1 °F -4.3 °F -0.0 °F 76% 30.30 in 10.0 mi West 5.8 mph - N/A   Overcast
9:53 AM 7.0 °F - 1.0 °F 77% 30.30 in 10.0 mi Calm Calm - N/A   Mostly Cloudy
10:53 AM 8.1 °F - 1.9 °F 76% 30.30 in 6.0 mi Calm Calm - N/A   Haze
11:53 AM 10.0 °F - 3.0 °F 73% 30.27 in 10.0 mi Calm Calm - N/A   Overcast
12:53 PM 12.0 °F - 3.0 °F 67% 30.25 in 10.0 mi Calm Calm - N/A   Mostly Cloudy
1:53 PM 12.9 °F 6.9 °F 3.9 °F 67% 30.25 in 10.0 mi SSE 3.5 mph - N/A   Mostly Cloudy
2:53 PM 14.0 °F - 3.9 °F 64% 30.25 in 10.0 mi Calm Calm - N/A   Scattered Clouds
3:53 PM 12.0 °F 4.1 °F 3.0 °F 67% 30.26 in 10.0 mi SSW 4.6 mph - N/A   Mostly Cloudy
4:53 PM 6.1 °F -0.9 °F 1.0 °F 80% 30.28 in 10.0 mi SW 3.5 mph - N/A   Clear
5:53 PM 8.1 °F - 1.9 °F 76% 30.27 in 10.0 mi Calm Calm - N/A   Mostly Cloudy
6:53 PM 8.1 °F - 1.9 °F 76% 30.28 in 10.0 mi Calm Calm - N/A   Overcast
7:53 PM 9.0 °F - 3.0 °F 77% 30.28 in 10.0 mi Calm Calm - N/A   Overcast
8:53 PM 5.0 °F - 1.0 °F 84% 30.29 in 10.0 mi Calm Calm - N/A   Overcast
9:53 PM 3.9 °F -6.9 °F -0.0 °F 84% 30.29 in 10.0 mi WNW 5.8 mph - N/A   Mostly Cloudy
10:39 PM 5.0 °F -4.1 °F -0.4 °F 78% 30.05 in 10.0 mi NW 4.6 mph - N/A   Scattered Clouds
10:53 PM 3.9 °F -5.3 °F -0.9 °F 80% 30.30 in 10.0 mi WNW 4.6 mph - N/A   Clear
11:53 PM 9.0 °F -3.2 °F 1.9 °F 73% 30.29 in 9.0 mi NW 8.1 mph - 0.00 in Snow Light Snow